Regional Weather Roundup
Issued by NWS

Home | Current Version | Previous Version | Text Only | Print | Product List | Glossary On
Versions: 1 2 3 4 5 6 7 8 9 10 11 12 13 14 15 16 17 18 19 20 21 22 23 24 25 26 27 28 29 30 31 32 33 34 35 36 37 38 39 40 41 42 43 44 45 46 47 48 49 50
000
ASUS43 KMPX 200201
RWRMN
WEATHER ROUNDUP FOR MINNESOTA
NATIONAL WEATHER SERVICE TWIN CITIES/CHANHASSEN MN
900 PM CDT SAT APR 19 2014


NOTE: "FAIR" INDICATES FEW OR NO CLOUDS BELOW 12,000 FEET WITH NO
SIGNIFICANT WEATHER AND/OR OBSTRUCTIONS TO VISIBILITY. N/A MEANS
CURRENT SKY AND/OR WEATHER CONDITIONS ARE NOT AVAILABLE.

MNZ060>063-068>070-200300-
   Twin Cities Metro

CITY           SKY/WX    TMP DP  RH WIND       PRES   REMARKS
TWIN CITIES    CLOUDY    59  53  80 SW3       30.00R
ST PAUL        CLOUDY    56  52  86 CALM      30.00R
CRYSTAL        PTCLDY    55  47  74 CALM      29.99R
BLAINE         MOCLDY    55  48  76 CALM      30.00R
EDEN PRAIRIE   MOCLDY    58  50  75 CALM      29.99R
LAKEVILLE      CLOUDY    55  54  94 S6        29.99S
SOUTH ST PAUL  CLOUDY    60  54  79 S6        29.98S
LAKE ELMO      CLOUDY    59  52  77 S8        30.00S
$$
MNZ001>005-007-008-013>017-022>024-027-028-200300-
   Northwest Minnesota

CITY           SKY/WX    TMP DP  RH WIND       PRES   REMARKS
BEMIDJI        CLEAR     55  34  46 SW3       29.93S
HALLOCK        CLOUDY    46  36  66 NW7       29.95R
ROSEAU         CLEAR     46  37  71 W9G16     29.93R
WARROAD        CLEAR     46  37  71 W9        29.92R
THIEF RVR FALL CLEAR     48  37  66 W10       29.96R
CROOKSTON      CLEAR     48  39  71 NW15      29.98R
FOSSTON        CLEAR     48  37  66 NW8       29.97R
DETROIT LAKES  CLEAR     55  32  41 S5        29.96S
MOORHEAD       CLEAR     57  36  44 W3        29.95R
PARK RAPIDS    CLEAR     51  32  48 SW6       29.95R
$$
MNZ006-009>011-018-025>026-200300-
   North Central Minnesota

CITY           SKY/WX    TMP DP  RH WIND       PRES   REMARKS
BAUDETTE       CLEAR     49  39  68 VRB3      29.91R
FLAG ISLAND    CLOUDY    45  36  70 NW13      29.91R
INTL FALLS     CLEAR     51  35  54 W6        29.91R
WASKISH        CLEAR     45  36  70 W7        29.94R
BIG FORK       CLEAR     46  28  49 SW3       29.94R
LONGVILLE      CLEAR     45  28  53 CALM      29.96R
GRAND RAPIDS   CLEAR     52  39  62 S7        29.96R
CRANE LAKE     CLEAR     43  41  93 S3        29.94R
ORR            CLEAR     48  37  66 S5        29.90R
COOK           CLEAR     48  39  71 S6        29.94R
$$
MNZ012-019>021-037-200300-
   Northeast Minnesota

CITY           SKY/WX    TMP DP  RH WIND       PRES   REMARKS
DULUTH         CLEAR     34  29  82 SE8       30.00R WCI  27
ELY            CLEAR     43  36  75 S9        29.96R
HIBBING        CLEAR     49  38  65 S3        29.96R
EVELETH        CLEAR     45  34  65 S3        29.98R
DULUTH HARBOR  CLEAR     32  30  93 CALM      30.04S
TWO HARBORS    CLEAR     32  27  80 CALM      30.01R
SILVER BAY     CLEAR     30  30 100 CALM      30.00S
GRAND MARAIS     N/A     32  30  92 CALM      30.04F
G MARAIS ARPRT CLEAR     34  27  75 E3        30.02S
$$
MNZ029>031-032-039>041-046>048-054>057-064-200300-
   West Central Minnesota

CITY           SKY/WX    TMP DP  RH WIND       PRES   REMARKS
FERGUS FALLS   CLEAR     55  30  38 S3        29.93R
WHEATON        CLEAR     63  34  34 S3        29.99R
MORRIS         CLEAR     54  34  47 W3        29.98R
ALEXANDRIA     CLEAR     57  30  35 W5        29.99R
ELBOW LAKE     FAIR      57  33  41 CALM      29.97S
WADENA         CLEAR     54  30  40 CALM      29.97R
GLENWOOD       PTCLDY    52  37  58 S5        30.00R
APPLETON       PTCLDY    55  37  50 S5        29.98S
BENSON         PTCLDY    52  43  71 SW5       29.99S
ORTONVILLE     PTCLDY    55  30  38 S3        29.98R
MADISON        MOCLDY    57  43  58 S3        29.99S
WILLMAR        FAIR      54  45  71 SE3       30.01R
$$
MNZ033>034-036-042>043-049>051-058-059-200300-
   Central Minnesota

CITY           SKY/WX    TMP DP  RH WIND       PRES   REMARKS
ST CLOUD       PTCLDY    48  43  82 SE5       29.99R
SAUK CENTRE    FAIR      50  40  68 SW5       29.98S
PAYNESVILLE    PTCLDY    48  38  68 CALM      29.99S
AITKIN         CLEAR     52  43  71 S3        29.96R
PINE RIVER     CLEAR     54  32  43 CALM      30.00R
BRAINERD       CLEAR     54  29  38 CALM      29.97R
STAPLES        CLEAR     54  28  37 CALM      29.98R
LONG PRAIRIE   FAIR      54  36  50 CALM      29.98R
LITTLE FALLS   PTCLDY    52  37  58 S3        29.98R
LITCHFIELD     PTCLDY    54  45  71 CALM      30.01R
BUFFALO        PTCLDY    51  45  80 CALM      30.01R
MAPLE LAKE     MOCLDY    48  45  90 CALM      30.01R
$$
MNZ037-044-045-052-053-200300-
   East Central Minnesota

CITY           SKY/WX    TMP DP  RH WIND       PRES   REMARKS
PRINCETON      PTCLDY    45  43  93 CALM      30.00R FOG
MORA           PTCLDY    41  37  87 CALM      30.01S
CAMBRIDGE      PTCLDY    45  37  76 CALM      29.99R
RUSH CITY      MOCLDY    43  38  80 CALM      30.00S
HINCKLEY       FAIR      43  37  81 CALM      30.00R
CLOQUET        CLEAR     34  30  86 SE5       30.00R WCI  30
MCGREGOR       CLEAR     50  41  71 S6        29.98R
$$
MNZ071>073-080-081-089-090-097-098-200300-
   Southwest Minnesota

CITY           SKY/WX    TMP DP  RH WIND       PRES   REMARKS
MONTEVIDEO     MOCLDY    57  39  51 CALM      30.00R
GRANITE FALLS  MOCLDY    51  44  77 CALM      30.00F
CANBY          CLOUDY    57  35  44 SW6       30.00R
MARSHALL       CLOUDY    59  36  41 S5        29.99S
REDWOOD FALLS  CLOUDY    59  43  55 CALM      30.00R
OLIVIA         MOCLDY    52  45  76 SE3       30.00R
PIPESTONE      CLOUDY    57  34  41 CALM      30.02R
WINDOM         CLOUDY    57  46  67 N3        30.02R
WORTHINGTON    CLOUDY    59  43  55 E5        30.03R
JACKSON        CLOUDY    59  46  63 VRB7      30.02R
TRACY          CLOUDY    58  42  55 CALM      30.01R
SLAYTON        CLOUDY    58  38  46 CALM      30.02R
$$
MNZ065>067-074>077-082>085-091>093-200300-
   South Central Minnesota

CITY           SKY/WX    TMP DP  RH WIND       PRES   REMARKS
MANKATO        CLOUDY    57  52  82 N6        30.00R
NEW ULM        CLOUDY    57  50  77 CALM      30.00S
ST JAMES       CLOUDY    57  48  72 NW6       30.02R
FAIRMONT       CLOUDY    61  48  63 NW3       30.03R
GLENCOE        LGT RAIN  56  45  65 CALM      30.00R
FARIBAULT      CLOUDY    59  54  82 SE6       30.01S HAZE
OWATONNA       LGT RAIN  59  52  77 E3        30.01S
WASECA         DRIZZLE   59  54  82 E7        30.03R
ALBERT LEA     CLOUDY    68  45  42 S10       30.01R
$$
MNZ078>079-086>088-094>096-200300-
   Southeast Minnesota

CITY           SKY/WX    TMP DP  RH WIND       PRES   REMARKS
ROCHESTER      CLOUDY    63  46  54 S14       30.03R
RED WING       CLOUDY    57  52  82 E6        30.01S
STANTON        RAIN      58  53  85 CALM      30.00R
DODGE CENTER   CLOUDY    64  45  48 CALM      30.02R
WINONA           N/A    N/A N/A N/A MISG        N/A
AUSTIN         CLOUDY    64  43  45 S7        30.02R
PRESTON        CLOUDY    64  45  49 S13G18    30.05S
$$
ABBREVIATIONS USED IN REMARKS
   TC - TEMPERATURES IN CELSIUS
  WCI - WIND CHILL INDEX
   HX - HEAT INDEX
  VSB - VISIBILITY
$$



USA.gov is the U.S. government's official web portal to all federal, state and local government web resources and services.